timestamp,surface_pressure_avg,surface_temp_avg,battery_voltage,lat,long
2020-11-04 00:09:01+00:00,341.7063,9.3,12.81,47.84626,-54.09684
2020-11-04 00:19:01+00:00,338.2913,9.3,12.81,47.84626,-54.09684
2020-11-04 00:29:01+00:00,342.408,9.3,12.81,47.84626,-54.09684
2020-11-04 00:39:01+00:00,350.6713,9.3,12.81,47.84626,-54.09684
2020-11-04 00:49:01+00:00,356.3013,9.3,12.81,47.84626,-54.09684
2020-11-04 00:59:01+00:00,361.423,9.32,12.81,47.84626,-54.09684
2020-11-04 01:09:01+00:00,363.5163,9.37,12.81,47.84626,-54.09684
2020-11-04 01:19:01+00:00,375.0113,9.36,12.81,47.84626,-54.09684
2020-11-04 01:29:01+00:00,379.9263,9.38,12.81,47.84626,-54.09684
2020-11-04 01:39:01+00:00,368.7779,9.39,12.81,47.84626,-54.09684
2020-11-04 01:49:01+00:00,368.0129,9.4,12.81,47.84626,-54.09684
2020-11-04 01:59:01+00:00,377.7712,9.39,12.81,47.84626,-54.09684
2020-11-04 02:09:01+00:00,373.918,9.4,12.81,47.84626,-54.09684
2020-11-04 02:19:01+00:00,357.5347,9.2,12.73,47.84626,-54.09684
2020-11-04 02:29:01+00:00,361.5746,8.84,12.73,47.84626,-54.09684
2020-11-04 02:39:01+00:00,368.1346,8.82,12.73,47.84626,-54.09684
2020-11-04 02:49:01+00:00,351.0046,9.02,12.73,47.84626,-54.09684
2020-11-04 02:59:01+00:00,337.0630000000001,9.2,12.73,47.84626,-54.09684
2020-11-04 03:09:01+00:00,346.9745,9.07,12.73,47.84626,-54.09684
2020-11-04 03:19:01+00:00,356.6763,9.21,12.73,47.84626,-54.09684
2020-11-04 03:29:01+00:00,345.74800000000016,9.35,12.73,47.84626,-54.09684
2020-11-04 03:39:01+00:00,333.9863,9.4,12.73,47.84626,-54.09684
2020-11-04 03:49:01+00:00,340.3047,9.3,12.73,47.84626,-54.09684
2020-11-04 03:59:01+00:00,329.733,8.65,12.73,47.84626,-54.09684
2020-11-04 04:09:01+00:00,310.7313,8.5,12.73,47.84626,-54.09684
2020-11-04 04:19:01+00:00,310.96299999999997,8.5,12.73,47.84626,-54.09684
2020-11-04 04:29:01+00:00,315.5947,8.64,12.73,47.84626,-54.09684
2020-11-04 04:39:01+00:00,299.4464,8.69,12.73,47.84626,-54.09684
2020-11-04 04:49:01+00:00,294.5347,8.7,12.73,47.84626,-54.09684
2020-11-04 04:59:01+00:00,302.7581,8.64,12.73,47.84626,-54.09684
2020-11-04 05:09:01+00:00,292.5864,8.6,12.73,47.84626,-54.09684
2020-11-04 05:19:01+00:00,279.8763,8.8,12.73,47.84626,-54.09684
2020-11-04 05:29:01+00:00,290.6414,8.7,12.73,47.84626,-54.09684
2020-11-04 05:39:01+00:00,296.5563,8.66,12.73,47.84626,-54.09684
2020-11-04 05:49:01+00:00,275.8363,8.7,12.73,47.84626,-54.09684
2020-11-04 05:59:01+00:00,252.8781,8.8,12.73,47.84626,-54.09684
2020-11-04 06:09:01+00:00,250.8781,8.9,12.73,47.84626,-54.09684
2020-11-04 06:19:01+00:00,245.6464,9.0,12.73,47.84626,-54.09684
2020-11-04 06:29:01+00:00,230.6797,8.9,12.73,47.84626,-54.09684
2020-11-04 06:39:01+00:00,225.7231,9.1,12.73,47.84626,-54.09684
2020-11-04 06:49:01+00:00,232.2298,9.1,12.73,47.84626,-54.09684
2020-11-04 06:59:01+00:00,230.9414,9.15,12.73,47.84626,-54.09684
2020-11-04 07:09:01+00:00,217.9114,9.19,12.73,47.84626,-54.09684
2020-11-04 07:19:01+00:00,216.7931,9.2,12.73,47.84626,-54.09684
2020-11-04 07:29:01+00:00,226.7781,9.18,12.73,47.84626,-54.09684
2020-11-04 07:39:01+00:00,220.5598,9.2,12.73,47.84626,-54.09684
2020-11-04 07:49:01+00:00,213.4731,9.2,12.73,47.84626,-54.09684
2020-11-04 07:59:01+00:00,217.5931,9.2,12.73,47.84626,-54.09684
2020-11-04 08:09:01+00:00,223.6331,8.79,12.73,47.84626,-54.09684
2020-11-04 08:19:01+00:00,231.7831,8.89,12.65,47.84626,-54.09684
2020-11-04 08:29:01+00:00,232.4914,8.9,12.65,47.84626,-54.09684
2020-11-04 08:39:01+00:00,234.4131,8.8,12.65,47.84626,-54.09684
2020-11-04 08:49:01+00:00,242.5481,8.6,12.65,47.84626,-54.09684
2020-11-04 08:59:01+00:00,238.6914,8.6,12.65,47.84626,-54.09684
2020-11-04 09:09:01+00:00,234.2431,8.69,12.65,47.84626,-54.09684
2020-11-04 09:19:01+00:00,238.5148,8.89,12.65,47.84626,-54.09684
2020-11-04 09:29:01+00:00,239.4148,8.95,12.65,47.84626,-54.09684
2020-11-04 09:39:01+00:00,239.2114,9.0,12.65,47.84626,-54.09684
2020-11-04 09:49:01+00:00,242.8398,9.0,12.65,47.84626,-54.09684
2020-11-04 09:59:01+00:00,250.673,8.9,12.65,47.84626,-54.09684
2020-11-04 10:09:01+00:00,255.0197,9.07,12.65,47.84626,-54.09684
2020-11-04 10:19:01+00:00,260.7114,9.18,12.65,47.84626,-54.09684
2020-11-04 10:29:01+00:00,261.0564,9.2,12.65,47.84626,-54.09684
2020-11-04 10:39:01+00:00,264.8463,9.19,12.65,47.84626,-54.09684
2020-11-04 10:49:01+00:00,272.4848,9.18,12.65,47.84626,-54.09684
2020-11-04 10:59:01+00:00,284.163,9.17,12.65,47.84626,-54.09684
2020-11-04 11:09:01+00:00,278.8947,9.11,12.65,47.84626,-54.09684
2020-11-04 11:19:01+00:00,275.498,8.94,12.65,47.84626,-54.09684
2020-11-04 11:29:01+00:00,282.7731,9.11,12.65,47.84626,-54.09684
2020-11-04 11:39:01+00:00,293.9847,9.2,12.65,47.84626,-54.09684
2020-11-04 11:49:01+00:00,293.7946,9.2,12.65,47.84626,-54.09684
2020-11-04 11:59:01+00:00,296.6397,9.13,12.65,47.84626,-54.09684
2020-11-04 12:09:01+00:00,313.4797,9.19,12.65,47.84626,-54.09684
2020-11-04 12:19:01+00:00,319.6964,9.1,12.81,47.84626,-54.09684
2020-11-04 12:29:01+00:00,317.0746,9.0,12.81,47.84626,-54.09684
2020-11-04 12:39:01+00:00,325.1613,8.99,12.81,47.84626,-54.09684
2020-11-04 12:49:01+00:00,335.0447,9.09,12.81,47.84626,-54.09684
2020-11-04 12:59:01+00:00,335.1479,9.0,12.81,47.84626,-54.09684
2020-11-04 13:09:01+00:00,334.3363,8.92,12.81,47.84626,-54.09684
2020-11-04 13:19:01+00:00,349.1896,9.0,13.29,47.84626,-54.09684
2020-11-04 13:29:01+00:00,351.9979,8.9,13.29,47.84626,-54.09684
2020-11-04 13:39:01+00:00,342.4063,8.9,13.29,47.84626,-54.09684
2020-11-04 13:49:01+00:00,339.2529,8.96,13.29,47.84626,-54.09684
2020-11-04 13:59:01+00:00,347.3296,9.01,13.29,47.84626,-54.09684
2020-11-04 14:09:01+00:00,345.2163,9.1,13.29,47.84626,-54.09684
2020-11-04 14:19:01+00:00,337.5547,9.2,13.44,47.84626,-54.09684
2020-11-04 14:29:01+00:00,337.7596,9.25,13.44,47.84626,-54.09684
2020-11-04 14:39:01+00:00,340.6096,9.3,13.44,47.84626,-54.09684
2020-11-04 14:49:01+00:00,337.7929,9.36,13.44,47.84626,-54.09684
2020-11-04 14:59:01+00:00,335.343,9.4,13.44,47.84626,-54.09684
2020-11-04 15:09:01+00:00,327.4396,9.4,13.44,47.84626,-54.09684
2020-11-04 15:19:01+00:00,318.8396,9.4,14.96,47.84626,-54.09684
2020-11-04 15:29:01+00:00,310.5197,9.4,14.96,47.84626,-54.09684
2020-11-04 15:39:01+00:00,308.4097,9.39,14.96,47.84626,-54.09684
2020-11-04 15:49:01+00:00,300.273,9.3,14.96,47.84626,-54.09684
2020-11-04 15:59:01+00:00,292.658,9.22,14.96,47.84626,-54.09684
2020-11-04 16:09:01+00:00,288.3664,9.29,14.96,47.84626,-54.09684
2020-11-04 16:19:01+00:00,288.3264,9.28,14.64,47.84626,-54.09684
2020-11-04 16:29:01+00:00,284.863,9.25,14.64,47.84626,-54.09684
2020-11-04 16:39:01+00:00,276.9364,9.38,14.64,47.84626,-54.09684
2020-11-04 16:49:01+00:00,266.8247,9.36,14.64,47.84626,-54.09684
2020-11-04 16:59:01+00:00,261.1064,9.38,14.64,47.84626,-54.09684
2020-11-04 17:09:01+00:00,248.9597,9.4,14.64,47.84626,-54.09684
2020-11-04 17:19:01+00:00,240.0298,9.3,14.64,47.84626,-54.09684
2020-11-04 17:29:01+00:00,238.7564,9.3,14.64,47.84626,-54.09684
2020-11-04 17:39:01+00:00,230.2231,9.3,14.64,47.84626,-54.09684
2020-11-04 17:49:01+00:00,220.1314,9.3,14.64,47.84626,-54.09684
2020-11-04 17:59:01+00:00,219.2031,9.3,14.64,47.84626,-54.09684
2020-11-04 18:09:01+00:00,219.3481,9.3,14.64,47.84626,-54.09684
2020-11-04 18:19:01+00:00,210.1931,9.3,14.48,47.84626,-54.09684
2020-11-04 18:29:01+00:00,204.1398,9.3,14.48,47.84626,-54.09684
2020-11-04 18:39:01+00:00,204.4415,9.3,14.48,47.84626,-54.09684
2020-11-04 18:49:01+00:00,198.6831,9.3,14.48,47.84626,-54.09684
2020-11-04 18:59:01+00:00,192.1031,9.3,14.48,47.84626,-54.09684
2020-11-04 19:09:01+00:00,191.4965,9.3,14.48,47.84626,-54.09684
2020-11-04 19:19:01+00:00,187.1915,9.3,14.24,47.84626,-54.09684
2020-11-04 19:29:01+00:00,181.3498,9.3,14.24,47.84626,-54.09684
2020-11-04 19:39:01+00:00,183.7964,9.3,14.24,47.84626,-54.09684
2020-11-04 19:49:01+00:00,192.2548,9.29,14.24,47.84626,-54.09684
2020-11-04 19:59:01+00:00,195.1348,9.29,14.24,47.84626,-54.09684
2020-11-04 20:09:01+00:00,193.3298,9.29,14.24,47.84626,-54.09684
2020-11-04 20:19:01+00:00,195.4065,9.28,13.68,47.84626,-54.09684
2020-11-04 20:29:01+00:00,204.3448,9.27,13.68,47.84626,-54.09684
2020-11-04 20:39:01+00:00,208.8414,9.2,13.68,47.84626,-54.09684
2020-11-04 20:49:01+00:00,207.3181,9.2,13.68,47.84626,-54.09684
2020-11-04 20:59:01+00:00,211.2381,9.2,13.68,47.84626,-54.09684
2020-11-04 21:09:01+00:00,218.7914,9.2,13.68,47.84626,-54.09684
2020-11-04 21:19:01+00:00,221.5048,9.2,13.21,47.84626,-54.09684
2020-11-04 21:29:01+00:00,225.8898,9.2,13.21,47.84626,-54.09684
2020-11-04 21:39:01+00:00,232.8581,9.2,13.21,47.84626,-54.09684
2020-11-04 21:49:01+00:00,234.5664,9.2,13.21,47.84626,-54.09684
2020-11-04 21:59:01+00:00,236.3748,9.19,13.21,47.84626,-54.09684
2020-11-04 22:09:01+00:00,243.6264,9.16,13.21,47.84626,-54.09684
2020-11-04 22:19:01+00:00,251.6897,9.1,12.89,47.84626,-54.09684
2020-11-04 22:29:01+00:00,252.0997,9.1,12.89,47.84626,-54.09684
2020-11-04 22:39:01+00:00,252.9464,9.1,12.89,47.84626,-54.09684
2020-11-04 22:49:01+00:00,261.9614,9.1,12.89,47.84626,-54.09684
2020-11-04 22:59:01+00:00,267.7865,9.0,12.89,47.84626,-54.09684
2020-11-04 23:09:01+00:00,270.8281,9.0,12.89,47.84626,-54.09684
2020-11-04 23:19:01+00:00,274.7596,8.9,12.73,47.84626,-54.09684
2020-11-04 23:29:01+00:00,281.5997,8.9,12.73,47.84626,-54.09684
2020-11-04 23:39:01+00:00,285.2697,8.8,12.73,47.84626,-54.09684
2020-11-04 23:49:01+00:00,291.403,8.8,12.73,47.84626,-54.09684
2020-11-04 23:59:01+00:00,297.5547,8.71,12.73,47.84626,-54.09684
